Sioux City, IA

6:48 PM CDT on October 13, 2019 (GMT -0500)
Sioux Gateway

Weather History for KSUX - September, 2019

Change the Weather History Date:

Saturday, September 21, 2019

  Actual Average Record
Temperature  
Mean Temperature 74 °F 61 °F  
Max Temperature 86 °F 74 °F 96 °F (2005)
Min Temperature 63 °F 48 °F 29 °F (1999)
Degree Days  
Heating Degree Days 0 6  
Month to date heating degree days 0 67  
Since 1 July heating degree days 5 82  
Cooling Degree Days 10 2  
Month to date cooling degree days 153 72  
Year to date cooling degree days 891 849  
Growing Degree Days 24 (Base 50)    
Moisture  
Dew Point 69 °F    
Average Humidity 81    
Maximum Humidity 100    
Minimum Humidity 58    
Precipitation  
Precipitation T in 0.10 in 2.01 in (2006)
Month to date precipitation 3.86 2.11  
Year to date precipitation 27.95 22.65  
Snow  
Snow 0.00 in 0.00 in 0.00 in ()
Month to date snowfall 0.0 0.0  
Since 1 July snowfall 0.0 0.0  
Since 1 September snowfall 0.0 0.0  
Snow Depth 0.00 in    
Sea Level Pressure  
Sea Level Pressure 29.79 in    
Wind  
Wind Speed 12 mph ()    
Max Wind Speed 18 mph    
Max Gust Speed 31 mph    
Visibility 9.9 miles    
Events Rain , Thunderstorm    
T = Trace of Precipitation, MM = Missing Value Source: Averaged Metar Reports

Daily Weather History Graph

Daily Weather History Graph

Search for Another Location

Airport or City:

Astronomy

Sep. 21, 2019 Rise Set
Actual Time 7:11 AM CDT 7:24 PM CDT
Civil Twilight 6:43 AM CDT 7:52 PM CDT
Nautical Twilight 6:10 AM CDT 8:25 PM CDT
Astronomical Twilight 5:36 AM CDT 8:59 PM CDT
Moon 11:55 PM CDT (9/21) 2:26 PM CDT (9/21)
Length of Visible Light 13h 09m
Length of Day
12h 13m
Waning Gibbous, 54% of the Moon is Illuminated
Sep 21
Waning Gibbous
Sep 21
Last Quarter
Sep 28
New
Oct 5
First Quarter
Oct 13
Full

Hourly Weather History & Observations

Time (CDT) Temp. Heat Index Dew Point Humidity Pressure Visibility Wind Dir Wind Speed Gust Speed Precip Events Conditions
12:39 AM 72.0 °F - 66.9 °F 84% 29.85 in 10.0 mi South 17.3 mph - N/A   Overcast
12:52 AM 72.0 °F - 68.0 °F 87% 29.82 in 10.0 mi South 16.1 mph 25.3 mph N/A   Overcast
1:07 AM 72.0 °F - 68.0 °F 87% 29.85 in 10.0 mi South 16.1 mph 24.2 mph N/A   Overcast
1:16 AM 72.0 °F - 68.0 °F 87% 29.84 in 10.0 mi South 16.1 mph 26.5 mph N/A   Overcast
1:52 AM 71.1 °F - 68.0 °F 90% 29.82 in 10.0 mi SSE 13.8 mph - N/A   Overcast
2:10 AM 71.1 °F - 69.1 °F 93% 29.84 in 10.0 mi SSE 12.7 mph 23.0 mph 0.00 in Rain Light Rain
2:25 AM 70.0 °F - 69.1 °F 97% 29.83 in 10.0 mi SSE 15.0 mph - 0.00 in Rain Light Rain
2:39 AM 71.1 °F - 69.1 °F 93% 29.83 in 10.0 mi SSE 13.8 mph - 0.00 in   Overcast
2:52 AM 71.1 °F - 69.1 °F 93% 29.80 in 10.0 mi SSE 12.7 mph 21.9 mph 0.00 in   Overcast
3:52 AM 71.1 °F - 69.1 °F 93% 29.78 in 10.0 mi SSE 11.5 mph - N/A   Overcast
4:16 AM 70.0 °F - 69.1 °F 97% 29.80 in 6.0 mi SSE 11.5 mph - N/A   Overcast
4:52 AM 70.0 °F - 69.1 °F 97% 29.77 in 10.0 mi SSE 10.4 mph - N/A   Overcast
5:16 AM 71.1 °F - 69.1 °F 93% 29.78 in 10.0 mi SSE 13.8 mph 21.9 mph N/A   Overcast
5:52 AM 71.1 °F - 70.0 °F 96% 29.75 in 10.0 mi SSE 12.7 mph - N/A   Overcast
6:52 AM 72.0 °F - 70.0 °F 93% 29.77 in 10.0 mi SSE 10.4 mph - N/A   Overcast
7:28 AM 73.0 °F - 70.0 °F 90% 29.78 in 10.0 mi South 11.5 mph 21.9 mph N/A   Overcast
7:42 AM 73.9 °F - 70.0 °F 87% 29.78 in 10.0 mi South 16.1 mph - N/A   Overcast
7:52 AM 73.9 °F - 70.0 °F 87% 29.75 in 10.0 mi South 16.1 mph 26.5 mph N/A   Mostly Cloudy
8:39 AM 73.9 °F - 70.0 °F 87% 29.77 in 10.0 mi South 15.0 mph 24.2 mph N/A   Mostly Cloudy
8:52 AM 73.9 °F - 70.0 °F 87% 29.75 in 10.0 mi South 16.1 mph 26.5 mph N/A   Mostly Cloudy
9:52 AM 75.0 °F - 70.0 °F 84% 29.76 in 10.0 mi SSW 18.4 mph 26.5 mph N/A   Overcast
10:52 AM 78.1 °F - 71.1 °F 79% 29.76 in 10.0 mi SSW 17.3 mph 26.5 mph N/A   Mostly Cloudy
11:08 AM 78.1 °F - 71.1 °F 79% 29.79 in 10.0 mi SSW 18.4 mph 26.5 mph N/A   Mostly Cloudy
11:52 AM 80.1 °F 83.6 °F 71.1 °F 74% 29.76 in 10.0 mi SSW 17.3 mph 27.6 mph N/A   Clear
12:52 PM 81.0 °F 84.9 °F 71.1 °F 72% 29.75 in 10.0 mi SSW 18.4 mph 24.2 mph N/A   Partly Cloudy
1:52 PM 82.0 °F 86.3 °F 71.1 °F 69% 29.75 in 10.0 mi SW 15.0 mph - N/A   Mostly Cloudy
2:52 PM 82.0 °F 85.9 °F 70.0 °F 67% 29.74 in 10.0 mi SSW 12.7 mph - N/A   Mostly Cloudy
3:52 PM 81.0 °F 86.2 °F 73.9 °F 79% 29.74 in 10.0 mi WSW 4.6 mph - 0.00 in   Mostly Cloudy
4:03 PM 84.9 °F 90.1 °F 71.1 °F 63% 29.77 in 10.0 mi West 6.9 mph - N/A Thunderstorm Scattered Clouds
4:29 PM 81.0 °F 85.2 °F 72.0 °F 74% 29.77 in 10.0 mi SW 6.9 mph - N/A   Mostly Cloudy
4:52 PM 81.0 °F 85.8 °F 73.0 °F 77% 29.75 in 10.0 mi WSW 5.8 mph - N/A   Mostly Cloudy
5:04 PM 84.9 °F 90.7 °F 72.0 °F 65% 29.77 in 10.0 mi West 6.9 mph - N/A Thunderstorm Overcast
5:26 PM 84.0 °F 87.8 °F 69.1 °F 61% 29.78 in 10.0 mi NW 10.4 mph - N/A   Mostly Cloudy
5:52 PM 82.0 °F 84.5 °F 66.9 °F 60% 29.76 in 10.0 mi NW 6.9 mph - N/A   Scattered Clouds
6:52 PM 79.0 °F - 64.9 °F 62% 29.78 in 10.0 mi NNW 4.6 mph - N/A   Scattered Clouds
7:52 PM 75.0 °F - 66.9 °F 76% 29.80 in 10.0 mi NNE 3.5 mph - N/A   Mostly Cloudy
8:52 PM 73.0 °F - 63.0 °F 71% 29.83 in 10.0 mi NNW 9.2 mph - N/A   Clear
9:52 PM 69.1 °F - 61.0 °F 75% 29.85 in 10.0 mi North 6.9 mph - N/A   Clear
10:52 PM 66.9 °F - 57.9 °F 73% 29.87 in 10.0 mi North 4.6 mph - N/A   Clear
11:52 PM 66.9 °F - 57.9 °F 73% 29.87 in 10.0 mi NNW 6.9 mph - N/A   Clear